• In United Kingdom
  • List of Countries
  • For 7 days
  • Water Temperature
  • Satellite Maps
  • Weather Map
  • Weather Widgets
  • user-avatar
    Login

    Hourly Weather Kanye

    Today, 13 November, Tuesday

    Time Temperature Precipitation Wind Pressure Humidity
    00:00 +25°C° 0 mm 3 mps 654 mmHg 23%
    01:00 +24°C° 0 mm 3 mps 654 mmHg 25%
    02:00 +22°C° 0 mm 3 mps 654 mmHg 31%
    03:00 +22°C° 0 mm 3 mps 654 mmHg 32%
    04:00 +22°C° 0 mm 3 mps 654 mmHg 33%
    05:00 +21°C° 0 mm 4 mps 654 mmHg 34%
    06:00 +22°C° 0 mm 4 mps 654 mmHg 33%
    07:00 +23°C° 0 mm 4 mps 655 mmHg 33%
    08:00 +25°C° 0 mm 5 mps 655 mmHg 31%
    09:00 +27°C° 0 mm 5 mps 656 mmHg 26%
    10:00 +30°C° 0 mm 4 mps 656 mmHg 22%
    11:00 +33°C° 0 mm 3 mps 656 mmHg 17%
    12:00 +35°C° 0 mm 3 mps 656 mmHg 15%
    13:00 +36°C° 0 mm 2 mps 655 mmHg 13%
    14:00 +37°C° 0 mm 1 mps 655 mmHg 10%
    15:00 +36°C° 0 mm 1 mps 654 mmHg 10%
    16:00 +36°C° 0 mm 1 mps 654 mmHg 10%
    17:00 +37°C° 0 mm 2 mps 653 mmHg 10%
    18:00 +35°C° 0 mm 2 mps 653 mmHg 11%
    19:00 +32°C° 0 mm 2 mps 652 mmHg 13%
    20:00 +30°C° 0 mm 2 mps 652 mmHg 14%
    21:00 +29°C° 0 mm 2 mps 652 mmHg 15%
    22:00 +29°C° 0 mm 2 mps 652 mmHg 16%
    23:00 +28°C° 0 mm 2 mps 652 mmHg 17%

    Tomorrow, 14 November, Wednesday

    Time Temperature Precipitation Wind Pressure Humidity
    00:00 +27°C° 0 mm 2 mps 652 mmHg 19%
    01:00 +27°C° 0 mm 2 mps 652 mmHg 20%
    02:00 +26°C° 0 mm 3 mps 651 mmHg 21%
    03:00 +25°C° 0 mm 2 mps 651 mmHg 24%
    04:00 +24°C° 0 mm 2 mps 651 mmHg 27%
    05:00 +23°C° 0 mm 2 mps 651 mmHg 30%
    06:00 +25°C° 0 mm 3 mps 652 mmHg 29%
    07:00 +27°C° 0 mm 3 mps 653 mmHg 28%
    08:00 +28°C° 0 mm 4 mps 654 mmHg 27%
    09:00 +30°C° 0 mm 3 mps 654 mmHg 23%
    10:00 +34°C° 0 mm 2 mps 654 mmHg 20%
    11:00 +36°C° 0 mm 2 mps 655 mmHg 16%
    12:00 +36°C° 0 mm 1 mps 654 mmHg 14%
    13:00 +37°C° 0 mm 1 mps 654 mmHg 12%
    14:00 +39°C° 0 mm 1 mps 653 mmHg 9%
    15:00 +39°C° 0 mm 1 mps 653 mmHg 9%
    16:00 +37°C° 0 mm 1 mps 652 mmHg 9%
    17:00 +37°C° 0 mm 1 mps 652 mmHg 9%
    18:00 +35°C° 0 mm 1 mps 652 mmHg 10%
    19:00 +34°C° 0 mm 1 mps 651 mmHg 12%
    20:00 +32°C° 0 mm 2 mps 651 mmHg 13%
    21:00 +31°C° 0 mm 2 mps 651 mmHg 14%
    22:00 +31°C° 0 mm 3 mps 652 mmHg 16%
    23:00 +30°C° 0 mm 3 mps 652 mmHg 17%

    Day after tomorrow, 15 November, Thursday

    Time Temperature Precipitation Wind Pressure Humidity
    00:00 +29°C° 0 mm 3 mps 652 mmHg 21%
    01:00 +27°C° 0 mm 3 mps 651 mmHg 25%
    02:00 +26°C° 0 mm 3 mps 651 mmHg 28%
    03:00 +25°C° 0 mm 3 mps 651 mmHg 31%
    04:00 +25°C° 0 mm 4 mps 651 mmHg 34%
    05:00 +23°C° 0 mm 4 mps 651 mmHg 37%
    06:00 +25°C° 0 mm 4 mps 652 mmHg 34%
    07:00 +26°C° 0 mm 5 mps 653 mmHg 32%
    08:00 +27°C° 0 mm 6 mps 654 mmHg 29%
    09:00 +30°C° 0 mm 5 mps 654 mmHg 26%
    10:00 +33°C° 0 mm 5 mps 654 mmHg 23%
    11:00 +35°C° 0 mm 5 mps 655 mmHg 19%
    12:00 +36°C° 0 mm 4 mps 654 mmHg 17%
    13:00 +37°C° 0 mm 3 mps 654 mmHg 15%
    14:00 +38°C° 0 mm 3 mps 653 mmHg 13%
    15:00 +38°C° 0 mm 2 mps 653 mmHg 12%
    16:00 +38°C° 0 mm 2 mps 652 mmHg 12%
    17:00 +37°C° 0 mm 1 mps 652 mmHg 11%
    18:00 +36°C° 0 mm 2 mps 652 mmHg 13%
    19:00 +34°C° 0 mm 2 mps 652 mmHg 15%
    20:00 +31°C° 0 mm 2 mps 652 mmHg 16%
    21:00 +32°C° 0.1 mm 4 mps 652 mmHg 18%
    22:00 +30°C° 0.1 mm 5 mps 653 mmHg 21%
    23:00 +30°C° 0.1 mm 6 mps 653 mmHg 23%

    16 November, Friday

    Time Temperature Precipitation Wind Pressure Humidity
    00:00 +29°C° 0 mm 6 mps 653 mmHg 23%
    01:00 +28°C° 0 mm 6 mps 653 mmHg 24%
    02:00 +28°C° 0 mm 6 mps 652 mmHg 25%
    03:00 +27°C° 0 mm 5 mps 652 mmHg 26%
    04:00 +26°C° 0 mm 3 mps 652 mmHg 27%
    05:00 +25°C° 0 mm 2 mps 652 mmHg 28%
    06:00 +26°C° 0 mm 3 mps 653 mmHg 26%
    07:00 +27°C° 0 mm 3 mps 654 mmHg 25%
    08:00 +29°C° 0 mm 4 mps 655 mmHg 23%
    09:00 +32°C° 0 mm 4 mps 655 mmHg 21%
    10:00 +34°C° 0 mm 4 mps 655 mmHg 19%
    11:00 +35°C° 0 mm 4 mps 656 mmHg 17%
    12:00 +36°C° 0 mm 3 mps 655 mmHg 16%
    13:00 +37°C° 0 mm 3 mps 654 mmHg 14%
    14:00 +38°C° 0 mm 3 mps 654 mmHg 13%
    15:00 +38°C° 0 mm 2 mps 653 mmHg 12%
    16:00 +38°C° 0 mm 2 mps 653 mmHg 12%
    17:00 +38°C° 0 mm 2 mps 653 mmHg 12%
    18:00 +36°C° 0.1 mm 3 mps 652 mmHg 14%
    19:00 +34°C° 0.1 mm 3 mps 652 mmHg 17%
    20:00 +31°C° 0.1 mm 3 mps 652 mmHg 19%
    21:00 +31°C° 0 mm 3 mps 652 mmHg 20%
    22:00 +30°C° 0 mm 4 mps 652 mmHg 21%
    23:00 +29°C° 0 mm 4 mps 653 mmHg 22%

    17 November, Saturday

    Time Temperature Precipitation Wind Pressure Humidity
    00:00 +28°C° 0 mm 4 mps 652 mmHg 24%
    01:00 +28°C° 0 mm 3 mps 652 mmHg 26%
    02:00 +27°C° 0 mm 3 mps 652 mmHg 28%
    03:00 +26°C° 0.1 mm 3 mps 652 mmHg 30%
    04:00 +25°C° 0.1 mm 2 mps 652 mmHg 33%
    05:00 +24°C° 0.1 mm 2 mps 652 mmHg 35%
    06:00 +26°C° 0 mm 3 mps 653 mmHg 32%
    07:00 +28°C° 0 mm 4 mps 654 mmHg 30%
    08:00 +29°C° 0 mm 4 mps 654 mmHg 27%
    09:00 +32°C° 0 mm 4 mps 655 mmHg 24%
    10:00 +34°C° 0 mm 4 mps 655 mmHg 20%
    11:00 +36°C° 0 mm 3 mps 655 mmHg 17%
    12:00 +37°C° 0 mm 2 mps 654 mmHg 15%
    13:00 +39°C° 0 mm 2 mps 654 mmHg 13%
    14:00 +40°C° 0 mm 1 mps 653 mmHg 11%
    15:00 +39°C° 0 mm 1 mps 653 mmHg 11%
    16:00 +39°C° 0 mm 1 mps 652 mmHg 11%
    17:00 +37°C° 0 mm 1 mps 652 mmHg 11%
    18:00 +35°C° 0 mm 1 mps 652 mmHg 13%
    19:00 +35°C° 0 mm 2 mps 652 mmHg 14%
    20:00 +32°C° 0 mm 2 mps 651 mmHg 15%
    21:00 +32°C° 0 mm 2 mps 652 mmHg 17%
    22:00 +31°C° 0 mm 2 mps 652 mmHg 18%
    23:00 +30°C° 0 mm 3 mps 652 mmHg 19%

    18 November, Sunday

    Time Temperature Precipitation Wind Pressure Humidity
    00:00 +30°C° 0 mm 2 mps 651 mmHg 20%
    01:00 +29°C° 0 mm 2 mps 651 mmHg 21%
    02:00 +28°C° 0 mm 2 mps 651 mmHg 22%
    03:00 +27°C° 0 mm 2 mps 651 mmHg 24%
    04:00 +27°C° 0 mm 2 mps 651 mmHg 25%
    05:00 +26°C° 0 mm 2 mps 651 mmHg 27%
    06:00 +28°C° 0 mm 3 mps 652 mmHg 24%
    07:00 +30°C° 0 mm 4 mps 653 mmHg 22%
    08:00 +32°C° 0 mm 5 mps 654 mmHg 20%
    09:00 +34°C° 0 mm 5 mps 654 mmHg 18%
    10:00 +36°C° 0 mm 6 mps 654 mmHg 17%
    11:00 +38°C° 0 mm 6 mps 654 mmHg 15%
    12:00 +39°C° 0 mm 5 mps 654 mmHg 14%
    13:00 +40°C° 0 mm 4 mps 653 mmHg 13%
    14:00 +40°C° 0 mm 4 mps 652 mmHg 11%
    15:00 +40°C° 0 mm 4 mps 652 mmHg 12%
    16:00 +38°C° 0 mm 3 mps 651 mmHg 12%
    17:00 +37°C° 0 mm 3 mps 651 mmHg 13%
    18:00 +36°C° 0 mm 4 mps 651 mmHg 16%
    19:00 +34°C° 0 mm 4 mps 651 mmHg 19%
    20:00 +32°C° 0 mm 5 mps 651 mmHg 22%
    21:00 +32°C° 0 mm 4 mps 652 mmHg 23%
    22:00 +30°C° 0 mm 4 mps 652 mmHg 25%
    23:00 +30°C° 0 mm 3 mps 653 mmHg 27%
    Show more